sat.trackr.live / text

‹ back to catalog

SOAP

NORAD 63263 · 2025-052BF

PAYLOAD ACTIVE UNKNOWN

§ Identity

Operator
Country
FR
Launch date
2025-03-15
Launch site
AFWTR
Launch vehicle
Mass (kg)
RCS (m²)

External: N2YO · Heavens-Above · Gunter

§ Orbital elements

Epoch: 2026-09-22T22:45:27.150624Z

Period
96.18 min
Inclination
97.6707°
Eccentricity
0.0002952
Mean motion
14.97193698 rev/d
Perigee alt
573.5 km
Apogee alt
577.6 km
Semi-major
6,953.7 km
B*
1.0077e-4
RAAN
156.5269°
Arg perigee
36.6787°
Mean anomaly
323.4637°
Rev number
8,331

§ Raw data

SOAP1 63263U 25052BF  26265.94823091  .00001108  00000+0  10077-3 0  99982 63263  97.6707 156.5269 0002952  36.6787 323.4637 14.97193698 83317

JSON: /api/v1/satellites/63263 · /tle

For live sub-satellite position, see the globe view (requires WebGL).

§ Visibility from observer

Set your observer location to see the next 7 days of passes ≥ 10°. The values pass through the URL so the page stays shareable.

No JS? Fill the form by hand. The geolocation button needs JavaScript.

§ Radio — SatNOGS DB

ModeDescriptionDownlinkUplink
FM Mode S - Transmitter 2.220 GHz
FM Mode X - Transmitter 8.254 GHz

2 transmitters · refreshed weekly from db.satnogs.org